| time (UTC) | temp C | wind direction | speed KPH | gust KPH | rain 1hr cm | rain 24hr cm | rain mn cm | humidity % | barometer mb |
| 20260831132502 | 12 | 247 | 3.2 | 11.3 | 0.00 | 0.00 | 0.00 | 93 | 1012.5 |
| 20260831132002 | 12 | 246 | 3.2 | 11.3 | 0.00 | 0.00 | 0.00 | 93 | 1012.5 |
| 20260831131503 | 12 | 252 | 3.2 | 9.7 | 0.00 | 0.00 | 0.00 | 93 | 1012.5 |
| 20260831131003 | 12 | 245 | 3.2 | 8.0 | 0.00 | 0.00 | 0.00 | 93 | 1012.5 |
| 20260831130502 | 12 | 239 | 3.2 | 8.0 | 0.00 | 0.00 | 0.00 | 93 | 1012.5 |
| 20260831130002 | 12 | 245 | 3.2 | 6.4 | 0.00 | 0.00 | 0.00 | 93 | 1012.5 |
| 20260831125502 | 12 | 249 | 3.2 | 6.4 | 0.00 | 0.00 | 0.00 | 93 | 1012.5 |
| 20260831125024 | 12 | 247 | 1.6 | 6.4 | 0.00 | 0.00 | 0.00 | 93 | 1012.5 |
| 20260831124502 | 12 | 245 | 3.2 | 11.3 | 0.00 | 0.00 | 0.00 | 93 | 1012.5 |
| 20260831124002 | 12 | 247 | 4.8 | 11.3 | 0.00 | 0.00 | 0.00 | 93 | 1012.5 |
| 20260831123502 | 12 | 251 | 3.2 | 11.3 | 0.00 | 0.00 | 0.00 | 93 | 1012.5 |
| 20260831123023 | 12 | 263 | 1.6 | 9.7 | 0.00 | 0.00 | 0.00 | 93 | 1012.5 |
| 20260831122503 | 12 | 263 | 1.6 | 6.4 | 0.00 | 0.00 | 0.00 | 93 | 1012.5 |
| 20260831122003 | 12 | 252 | 3.2 | 12.9 | 0.00 | 0.00 | 0.00 | 92 | 1012.5 |
| 20260831121502 | 12 | 247 | 3.2 | 12.9 | 0.00 | 0.00 | 0.00 | 92 | 1012.5 |
| 20260831121002 | 12 | 246 | 3.2 | 12.9 | 0.00 | 0.00 | 0.00 | 92 | 1012.5 |
| 20260831120524 | 12 | 252 | 3.2 | 12.9 | 0.00 | 0.00 | 0.00 | 92 | 1012.5 |
| 20260831120023 | 12 | 248 | 4.8 | 12.9 | 0.00 | 0.00 | 0.00 | 92 | 1012.5 |
| 20260831115502 | 12 | 247 | 3.2 | 11.3 | 0.00 | 0.00 | 0.00 | 92 | 1012.5 |
| 20260831115002 | 12 | 251 | 3.2 | 11.3 | 0.00 | 0.00 | 0.00 | 93 | 1012.5 |
| 20260831114502 | 12 | 251 | 3.2 | 12.9 | 0.00 | 0.00 | 0.00 | 93 | 1012.5 |
| 20260831114002 | 12 | 252 | 3.2 | 12.9 | 0.00 | 0.00 | 0.00 | 93 | 1012.5 |
| 20260831113523 | 12 | 253 | 3.2 | 12.9 | 0.00 | 0.00 | 0.00 | 93 | 1012.5 |
| 20260831113002 | 12 | 254 | 4.8 | 12.9 | 0.00 | 0.00 | 0.00 | 93 | 1012.5 |
| 20260831112502 | 12 | 251 | 4.8 | 12.9 | 0.00 | 0.00 | 0.00 | 93 | 1012.5 |
| 20260831112023 | 12 | 254 | 4.8 | 12.9 | 0.00 | 0.00 | 0.00 | 93 | 1012.5 |
| 20260831111503 | 12 | 259 | 4.8 | 12.9 | 0.00 | 0.00 | 0.00 | 93 | 1012.5 |
| 20260831111002 | 12 | 254 | 4.8 | 12.9 | 0.00 | 0.00 | 0.00 | 92 | 1012.5 |
| 20260831110523 | 12 | 250 | 3.2 | 11.3 | 0.00 | 0.00 | 0.00 | 92 | 1012.5 |
| 20260831110023 | 12 | 253 | 3.2 | 11.3 | 0.00 | 0.00 | 0.00 | 92 | 1012.5 |
| 20260831105503 | 12 | 253 | 3.2 | 11.3 | 0.00 | 0.00 | 0.00 | 92 | 1012.5 |
| 20260831105002 | 12 | 254 | 3.2 | 9.7 | 0.00 | 0.00 | 0.00 | 92 | 1012.5 |
| 20260831104524 | 12 | 246 | 3.2 | 9.7 | 0.00 | 0.00 | 0.00 | 92 | 1012.5 |
| 20260831104002 | 12 | 239 | 3.2 | 9.7 | 0.00 | 0.00 | 0.00 | 92 | 1012.5 |
| 20260831103502 | 12 | 238 | 1.6 | 9.7 | 0.00 | 0.00 | 0.00 | 92 | 1012.5 |
| 20260831103002 | 12 | 235 | 1.6 | 6.4 | 0.00 | 0.00 | 0.00 | 92 | 1012.5 |
| 20260831102503 | 12 | 234 | 1.6 | 4.8 | 0.00 | 0.00 | 0.00 | 92 | 1012.5 |
| 20260831102002 | 12 | 233 | 1.6 | 6.4 | 0.00 | 0.00 | 0.00 | 92 | 1012.5 |
| 20260831101502 | 12 | 236 | 1.6 | 6.4 | 0.00 | 0.00 | 0.00 | 92 | 1012.5 |
| 20260831101002 | 12 | 238 | 1.6 | 4.8 | 0.00 | 0.00 | 0.00 | 92 | 1012.5 |
| 20260831100502 | 12 | 238 | 1.6 | 4.8 | 0.00 | 0.00 | 0.00 | 92 | 1012.5 |
| 20260831100003 | 12 | 237 | 1.6 | 6.4 | 0.00 | 0.00 | 0.00 | 92 | 1012.5 |
| 20260831095503 | 12 | 240 | 1.6 | 6.4 | 0.00 | 0.00 | 0.00 | 92 | 1012.5 |
| 20260831095002 | 12 | 245 | 1.6 | 6.4 | 0.00 | 0.00 | 0.00 | 92 | 1012.5 |
| 20260831094502 | 12 | 246 | 1.6 | 4.8 | 0.00 | 0.00 | 0.00 | 92 | 1012.5 |
| 20260831094002 | 12 | 244 | 1.6 | 4.8 | 0.00 | 0.00 | 0.00 | 92 | 1012.5 |
| 20260831093502 | 12 | 243 | 1.6 | 4.8 | 0.00 | 0.00 | 0.00 | 92 | 1012.5 |
| 20260831093002 | 12 | 241 | 1.6 | 4.8 | 0.00 | 0.00 | 0.00 | 92 | 1012.5 |
| 20260831092503 | 12 | 242 | 1.6 | 6.4 | 0.00 | 0.00 | 0.00 | 92 | 1012.5 |
| 20260831092002 | 12 | 250 | 1.6 | 6.4 | 0.00 | 0.00 | 0.00 | 92 | 1012.5 |
| 20260831091502 | 12 | 256 | 1.6 | 6.4 | 0.00 | 0.00 | 0.00 | 91 | 1012.5 |
| 20260831091002 | 12 | 269 | 1.6 | 6.4 | 0.00 | 0.00 | 0.00 | 91 | 1012.5 |
| 20260831090502 | 12 | 289 | 0.0 | 3.2 | 0.00 | 0.00 | 0.00 | 91 | 1012.5 |
| 20260831090003 | 12 | 291 | 0.0 | 4.8 | 0.00 | 0.00 | 0.00 | 92 | 1012.5 |
| 20260831085503 | 12 | 270 | 0.0 | 4.8 | 0.00 | 0.00 | 0.00 | 91 | 1012.5 |
| 20260831085023 | 12 | 254 | 1.6 | 4.8 | 0.00 | 0.00 | 0.00 | 91 | 1012.5 |
| 20260831084502 | 12 | 254 | 0.0 | 4.8 | 0.00 | 0.00 | 0.00 | 91 | 1012.5 |
| 20260831084003 | 12 | 256 | 0.0 | 3.2 | 0.00 | 0.00 | 0.00 | 92 | 1012.5 |
| 20260831083502 | 12 | 253 | 0.0 | 6.4 | 0.00 | 0.00 | 0.00 | 92 | 1012.5 |
| 20260831083002 | 12 | 253 | 0.0 | 6.4 | 0.00 | 0.00 | 0.00 | 91 | 1012.5 |
| 20260831082523 | 12 | 268 | 0.0 | 4.8 | 0.00 | 0.00 | 0.00 | 92 | 1012.5 |
| 20260831081502 | 12 | 268 | 0.0 | 4.8 | 0.00 | 0.00 | 0.00 | 91 | 1012.7 |
| 20260831081002 | 12 | 264 | 0.0 | 4.8 | 0.00 | 0.00 | 0.00 | 91 | 1012.7 |
| 20260831080024 | 12 | 0 | 0.0 | 0.0 | 0.00 | 0.00 | 0.00 | 91 | 1012.8 |
| 20260831075503 | 12 | 344 | 0.0 | 3.2 | 0.00 | 0.00 | 0.00 | 91 | 1012.8 |
| 20260831075003 | 12 | 344 | 0.0 | 3.2 | 0.00 | 0.00 | 0.00 | 91 | 1012.8 |
| 20260831074502 | 12 | 338 | 0.0 | 4.8 | 0.00 | 0.00 | 0.00 | 91 | 1012.8 |
| 20260831074003 | 12 | 337 | 0.0 | 4.8 | 0.00 | 0.00 | 0.00 | 91 | 1012.8 |
| 20260831073503 | 12 | 328 | 0.0 | 8.0 | 0.00 | 0.00 | 0.00 | 91 | 1012.8 |
| 20260831073002 | 12 | 319 | 0.0 | 8.0 | 0.00 | 0.00 | 0.00 | 91 | 1012.8 |
| 20260831072523 | 12 | 294 | 0.0 | 3.2 | 0.00 | 0.00 | 0.00 | 91 | 1012.8 |
| 20260831072003 | 13 | 284 | 0.0 | 3.2 | 0.00 | 0.00 | 0.00 | 91 | 1012.8 |
| 20260831071523 | 12 | 280 | 0.0 | 3.2 | 0.00 | 0.00 | 0.00 | 91 | 1012.8 |
| 20260831071002 | 12 | 245 | 0.0 | 4.8 | 0.00 | 0.00 | 0.00 | 91 | 1012.8 |
| 20260831070502 | 12 | 242 | 0.0 | 4.8 | 0.00 | 0.00 | 0.00 | 90 | 1012.8 |
| 20260831070005 | 12 | 245 | 0.0 | 4.8 | 0.00 | 0.00 | 0.00 | 90 | 1012.8 |
| 20260831065502 | 12 | 248 | 0.0 | 4.8 | 0.00 | 0.00 | 0.00 | 90 | 1012.8 |
| 20260831065002 | 12 | 253 | 0.0 | 3.2 | 0.00 | 0.00 | 0.00 | 90 | 1012.8 |
| 20260831064503 | 12 | 268 | 1.6 | 4.8 | 0.00 | 0.00 | 0.00 | 90 | 1012.8 |
| 20260831064002 | 12 | 283 | 0.0 | 4.8 | 0.00 | 0.00 | 0.00 | 90 | 1012.8 |
| 20260831063502 | 12 | 313 | 0.0 | 3.2 | 0.00 | 0.00 | 0.00 | 89 | 1012.6 |
| 20260831063002 | 12 | 316 | 0.0 | 1.6 | 0.00 | 0.00 | 0.00 | 89 | 1012.6 |
| 20260831062503 | 12 | 323 | 0.0 | 1.6 | 0.00 | 0.00 | 0.00 | 89 | 1012.6 |
| 20260831062023 | 12 | 323 | 0.0 | 1.6 | 0.00 | 0.00 | 0.00 | 89 | 1012.6 |
| 20260831061502 | 12 | 323 | 0.0 | 4.8 | 0.00 | 0.00 | 0.00 | 89 | 1012.6 |
| 20260831061002 | 12 | 323 | 0.0 | 4.8 | 0.00 | 0.00 | 0.00 | 88 | 1012.6 |
| 20260831060502 | 12 | 321 | 0.0 | 1.6 | 0.00 | 0.00 | 0.00 | 88 | 1012.6 |
| 20260831060003 | 12 | 321 | 0.0 | 1.6 | 0.00 | 0.00 | 0.00 | 88 | 1012.6 |
| 20260831055523 | 12 | 321 | 0.0 | 1.6 | 0.00 | 0.00 | 0.00 | 88 | 1012.6 |
| 20260831055004 | 12 | 320 | 0.0 | 1.6 | 0.00 | 0.00 | 0.00 | 87 | 1012.6 |
| 20260831054502 | 12 | 319 | 0.0 | 4.8 | 0.00 | 0.00 | 0.00 | 87 | 1012.6 |
| 20260831054002 | 12 | 317 | 0.0 | 4.8 | 0.00 | 0.00 | 0.00 | 87 | 1012.6 |
| 20260831053503 | 13 | 315 | 0.0 | 3.2 | 0.00 | 0.00 | 0.00 | 86 | 1012.8 |
| 20260831053003 | 13 | 314 | 0.0 | 3.2 | 0.00 | 0.00 | 0.00 | 86 | 1012.8 |
| 20260831052502 | 13 | 313 | 0.0 | 1.6 | 0.00 | 0.00 | 0.00 | 86 | 1012.8 |
| 20260831052003 | 13 | 313 | 0.0 | 1.6 | 0.00 | 0.00 | 0.00 | 85 | 1012.8 |
| 20260831051503 | 13 | 313 | 0.0 | 1.6 | 0.00 | 0.00 | 0.00 | 85 | 1012.8 |
| 20260831051024 | 13 | 313 | 0.0 | 1.6 | 0.00 | 0.00 | 0.00 | 85 | 1012.8 |
| 20260831050502 | 13 | 313 | 0.0 | 3.2 | 0.00 | 0.00 | 0.00 | 85 | 1012.8 |
| 20260831050003 | 13 | 313 | 0.0 | 1.6 | 0.00 | 0.00 | 0.00 | 84 | 1012.8 |
| 20260831045502 | 13 | 0 | 0.0 | 0.0 | 0.00 | 0.00 | 0.00 | 84 | 1012.8 |
| 20260831045003 | 13 | 0 | 0.0 | 0.0 | 0.00 | 0.00 | 0.00 | 84 | 1012.8 |
| 20260831044503 | 13 | 0 | 0.0 | 0.0 | 0.00 | 0.00 | 0.00 | 83 | 1012.8 |
| 20260831044002 | 13 | 0 | 0.0 | 0.0 | 0.00 | 0.00 | 0.00 | 83 | 1012.8 |
| 20260831043503 | 13 | 0 | 0.0 | 0.0 | 0.00 | 0.00 | 0.00 | 83 | 1012.2 |
| 20260831043003 | 13 | 313 | 0.0 | 1.6 | 0.00 | 0.00 | 0.00 | 82 | 1012.2 |
| 20260831042502 | 13 | 313 | 0.0 | 1.6 | 0.00 | 0.00 | 0.00 | 82 | 1012.2 |
| 20260831042003 | 14 | 313 | 0.0 | 1.6 | 0.00 | 0.00 | 0.00 | 82 | 1012.2 |
| 20260831041503 | 14 | 312 | 0.0 | 3.2 | 0.00 | 0.00 | 0.00 | 81 | 1012.2 |
| 20260831041003 | 14 | 312 | 0.0 | 3.2 | 0.00 | 0.00 | 0.00 | 81 | 1012.2 |
| 20260831040502 | 14 | 311 | 0.0 | 1.6 | 0.00 | 0.00 | 0.00 | 81 | 1012.2 |
| 20260831040003 | 14 | 311 | 0.0 | 1.6 | 0.00 | 0.00 | 0.00 | 80 | 1012.2 |
| 20260831035524 | 15 | 311 | 0.0 | 1.6 | 0.00 | 0.00 | 0.00 | 80 | 1012.2 |
| 20260831035004 | 15 | 311 | 0.0 | 1.6 | 0.00 | 0.00 | 0.00 | 80 | 1012.2 |
| 20260831034502 | 15 | 0 | 0.0 | 0.0 | 0.00 | 0.00 | 0.00 | 79 | 1012.2 |
| 20260831034005 | 15 | 311 | 0.0 | 1.6 | 0.00 | 0.00 | 0.00 | 79 | 1012.2 |
| 20260831033503 | 15 | 311 | 0.0 | 1.6 | 0.00 | 0.00 | 0.00 | 78 | 1011.9 |
| 20260831033003 | 15 | 311 | 0.0 | 1.6 | 0.00 | 0.00 | 0.00 | 78 | 1011.9 |
| 20260831032503 | 15 | 311 | 0.0 | 1.6 | 0.00 | 0.00 | 0.00 | 77 | 1011.9 |
| 20260831032003 | 16 | 311 | 0.0 | 1.6 | 0.00 | 0.00 | 0.00 | 77 | 1011.9 |
| 20260831031504 | 16 | 311 | 0.0 | 1.6 | 0.00 | 0.00 | 0.00 | 76 | 1011.9 |
| 20260831031003 | 16 | 311 | 0.0 | 1.6 | 0.00 | 0.00 | 0.00 | 76 | 1011.9 |
| 20260831030503 | 16 | 311 | 0.0 | 1.6 | 0.00 | 0.00 | 0.00 | 75 | 1011.9 |
| 20260831030004 | 16 | 310 | 0.0 | 3.2 | 0.00 | 0.00 | 0.00 | 74 | 1011.9 |
| 20260831025524 | 16 | 309 | 0.0 | 3.2 | 0.00 | 0.00 | 0.00 | 74 | 1011.9 |
| 20260831025003 | 16 | 309 | 0.0 | 3.2 | 0.00 | 0.00 | 0.00 | 73 | 1011.9 |
| 20260831024503 | 16 | 310 | 0.0 | 4.8 | 0.00 | 0.00 | 0.00 | 72 | 1011.9 |
| 20260831024003 | 17 | 317 | 1.6 | 4.8 | 0.00 | 0.00 | 0.00 | 72 | 1011.9 |
| 20260831023503 | 17 | 326 | 1.6 | 4.8 | 0.00 | 0.00 | 0.00 | 71 | 1011.9 |
| 20260831023003 | 17 | 323 | 1.6 | 6.4 | 0.00 | 0.00 | 0.00 | 71 | 1011.9 |
| 20260831022504 | 17 | 320 | 1.6 | 6.4 | 0.00 | 0.00 | 0.00 | 70 | 1011.9 |
| 20260831022003 | 17 | 331 | 1.6 | 8.0 | 0.00 | 0.00 | 0.00 | 70 | 1011.9 |
| 20260831021503 | 17 | 326 | 1.6 | 8.0 | 0.00 | 0.00 | 0.00 | 69 | 1011.9 |
| 20260831021002 | 17 | 322 | 1.6 | 8.0 | 0.00 | 0.00 | 0.00 | 69 | 1011.9 |
| 20260831020524 | 18 | 324 | 3.2 | 11.3 | 0.00 | 0.00 | 0.00 | 69 | 1011.9 |
| 20260831020003 | 18 | 323 | 3.2 | 11.3 | 0.00 | 0.00 | 0.00 | 68 | 1011.9 |
| 20260831015503 | 18 | 320 | 3.2 | 8.0 | 0.00 | 0.00 | 0.00 | 68 | 1011.9 |
| 20260831015023 | 18 | 321 | 3.2 | 8.0 | 0.00 | 0.00 | 0.00 | 67 | 1011.9 |
| 20260831014503 | 18 | 325 | 3.2 | 12.9 | 0.00 | 0.00 | 0.00 | 66 | 1011.9 |
| 20260831014003 | 19 | 329 | 3.2 | 12.9 | 0.00 | 0.00 | 0.00 | 65 | 1011.9 |
| 20260831013503 | 20 | 328 | 1.6 | 8.0 | 0.00 | 0.00 | 0.00 | 65 | 1011.9 |
| 20260831013003 | 20 | 322 | 3.2 | 9.7 | 0.00 | 0.00 | 0.00 | 64 | 1011.9 |
| 20260831012524 | 20 | 316 | 3.2 | 9.7 | 0.00 | 0.00 | 0.00 | 64 | 1011.9 |
| 20260831012003 | 20 | 326 | 4.8 | 14.5 | 0.00 | 0.00 | 0.00 | 63 | 1011.9 |
| 20260831011524 | 21 | 330 | 3.2 | 14.5 | 0.00 | 0.00 | 0.00 | 63 | 1011.9 |
| 20260831011024 | 21 | 320 | 1.6 | 6.4 | 0.00 | 0.00 | 0.00 | 62 | 1011.9 |
| 20260831010524 | 21 | 329 | 1.6 | 9.7 | 0.00 | 0.00 | 0.00 | 62 | 1011.9 |
| 20260831010024 | 21 | 335 | 1.6 | 9.7 | 0.00 | 0.00 | 0.00 | 62 | 1011.9 |
| 20260831005503 | 21 | 341 | 1.6 | 9.7 | 0.00 | 0.00 | 0.00 | 62 | 1011.9 |
| 20260831005024 | 21 | 334 | 3.2 | 9.7 | 0.00 | 0.00 | 0.00 | 62 | 1011.9 |
| 20260831004503 | 21 | 324 | 3.2 | 9.7 | 0.00 | 0.00 | 0.00 | 61 | 1011.9 |
| 20260831004003 | 21 | 330 | 3.2 | 12.9 | 0.00 | 0.00 | 0.00 | 61 | 1012.1 |
| 20260831003502 | 22 | 335 | 4.8 | 14.5 | 0.00 | 0.00 | 0.00 | 61 | 1012.1 |
| 20260831003003 | 22 | 335 | 4.8 | 14.5 | 0.00 | 0.00 | 0.00 | 60 | 1012.1 |
| 20260831002503 | 22 | 334 | 4.8 | 12.9 | 0.00 | 0.00 | 0.00 | 59 | 1012.1 |
| 20260831002003 | 22 | 328 | 3.2 | 14.5 | 0.00 | 0.00 | 0.00 | 59 | 1012.1 |
| 20260831001524 | 22 | 332 | 3.2 | 14.5 | 0.00 | 0.00 | 0.00 | 59 | 1012.1 |
| 20260831001003 | 23 | 330 | 3.2 | 12.9 | 0.00 | 0.00 | 0.00 | 59 | 1012.1 |
| 20260831000503 | 23 | 329 | 3.2 | 11.3 | 0.00 | 0.00 | 0.00 | 59 | 1012.1 |
| 20260831000003 | 23 | 339 | 3.2 | 14.5 | 0.00 | 0.00 | 0.00 | 58 | 1012.1 |
| 20260830235503 | 23 | 333 | 4.8 | 14.5 | 0.00 | 0.00 | 0.00 | 58 | 1012.1 |
| 20260830235003 | 23 | 325 | 3.2 | 14.5 | 0.00 | 0.00 | 0.00 | 57 | 1012.1 |
| 20260830234524 | 23 | 321 | 3.2 | 14.5 | 0.00 | 0.00 | 0.00 | 57 | 1012.1 |
| 20260830234003 | 23 | 327 | 3.2 | 12.9 | 0.00 | 0.00 | 0.00 | 57 | 1013.3 |
| 20260830233503 | 23 | 335 | 3.2 | 12.9 | 0.00 | 0.00 | 0.00 | 57 | 1013.3 |
| 20260830233003 | 23 | 328 | 3.2 | 12.9 | 0.00 | 0.00 | 0.00 | 57 | 1013.3 |
| 20260830232524 | 23 | 321 | 3.2 | 12.9 | 0.00 | 0.00 | 0.00 | 57 | 1013.3 |
| 20260830232003 | 23 | 330 | 4.8 | 14.5 | 0.00 | 0.00 | 0.00 | 57 | 1013.3 |
| 20260830231524 | 23 | 330 | 3.2 | 14.5 | 0.00 | 0.00 | 0.00 | 57 | 1013.3 |
| 20260830231024 | 23 | 321 | 3.2 | 9.7 | 0.00 | 0.00 | 0.00 | 57 | 1013.3 |
| 20260830230503 | 23 | 332 | 3.2 | 12.9 | 0.00 | 0.00 | 0.00 | 58 | 1013.3 |
| 20260830230003 | 23 | 330 | 3.2 | 14.5 | 0.00 | 0.00 | 0.00 | 58 | 1013.3 |
| 20260830225503 | 23 | 324 | 4.8 | 14.5 | 0.00 | 0.00 | 0.00 | 58 | 1013.3 |
| 20260830225003 | 23 | 331 | 3.2 | 9.7 | 0.00 | 0.00 | 0.00 | 58 | 1013.3 |
| 20260830224503 | 23 | 336 | 3.2 | 9.7 | 0.00 | 0.00 | 0.00 | 59 | 1013.3 |
| 20260830224024 | 23 | 324 | 3.2 | 9.7 | 0.00 | 0.00 | 0.00 | 59 | 1013.3 |
| 20260830223524 | 23 | 315 | 3.2 | 8.0 | 0.00 | 0.00 | 0.00 | 59 | 1013.3 |
| 20260830223003 | 23 | 338 | 3.2 | 14.5 | 0.00 | 0.00 | 0.00 | 59 | 1013.3 |
| 20260830222503 | 23 | 345 | 4.8 | 16.1 | 0.00 | 0.00 | 0.00 | 59 | 1013.3 |
| 20260830222003 | 23 | 330 | 4.8 | 16.1 | 0.00 | 0.00 | 0.00 | 58 | 1013.3 |
| 20260830221503 | 23 | 314 | 3.2 | 11.3 | 0.00 | 0.00 | 0.00 | 59 | 1013.3 |
| 20260830221003 | 23 | 305 | 3.2 | 8.0 | 0.00 | 0.00 | 0.00 | 59 | 1013.3 |
| 20260830220503 | 23 | 301 | 3.2 | 14.5 | 0.00 | 0.00 | 0.00 | 60 | 1013.3 |
| 20260830220003 | 23 | 252 | 3.2 | 14.5 | 0.00 | 0.00 | 0.00 | 60 | 1013.3 |
| 20260830215503 | 23 | 256 | 3.2 | 9.7 | 0.00 | 0.00 | 0.00 | 59 | 1013.3 |
| 20260830215024 | 23 | 309 | 3.2 | 11.3 | 0.00 | 0.00 | 0.00 | 61 | 1013.3 |
| 20260830214524 | 23 | 311 | 3.2 | 11.3 | 0.00 | 0.00 | 0.00 | 61 | 1013.3 |
| 20260830214003 | 22 | 293 | 3.2 | 11.3 | 0.00 | 0.00 | 0.00 | 61 | 1013.4 |
| 20260830213503 | 22 | 283 | 3.2 | 8.0 | 0.00 | 0.00 | 0.00 | 61 | 1013.4 |
| 20260830213003 | 22 | 273 | 3.2 | 12.9 | 0.00 | 0.00 | 0.00 | 61 | 1013.4 |
| 20260830212503 | 22 | 273 | 3.2 | 12.9 | 0.00 | 0.00 | 0.00 | 61 | 1013.4 |
| 20260830212003 | 22 | 255 | 3.2 | 11.3 | 0.00 | 0.00 | 0.00 | 62 | 1013.4 |
| 20260830211503 | 22 | 237 | 3.2 | 11.3 | 0.00 | 0.00 | 0.00 | 61 | 1013.4 |
| 20260830211003 | 22 | 244 | 3.2 | 11.3 | 0.00 | 0.00 | 0.00 | 62 | 1013.4 |
| 20260830210524 | 22 | 252 | 4.8 | 14.5 | 0.00 | 0.00 | 0.00 | 63 | 1013.4 |
| 20260830210003 | 22 | 259 | 4.8 | 14.5 | 0.00 | 0.00 | 0.00 | 62 | 1013.4 |
| 20260830205524 | 22 | 263 | 3.2 | 12.9 | 0.00 | 0.00 | 0.00 | 62 | 1013.4 |
| 20260830205003 | 22 | 263 | 3.2 | 12.9 | 0.00 | 0.00 | 0.00 | 62 | 1013.4 |
| 20260830204503 | 22 | 239 | 1.6 | 8.0 | 0.00 | 0.00 | 0.00 | 63 | 1013.4 |
| 20260830204003 | 21 | 323 | 3.2 | 8.0 | 0.00 | 0.00 | 0.00 | 63 | 1013.4 |
| 20260830203503 | 21 | 333 | 3.2 | 8.0 | 0.00 | 0.00 | 0.00 | 64 | 1013.4 |
| 20260830203024 | 21 | 300 | 3.2 | 8.0 | 0.00 | 0.00 | 0.00 | 64 | 1013.4 |
| 20260830202524 | 21 | 285 | 3.2 | 12.9 | 0.00 | 0.00 | 0.00 | 64 | 1013.4 |
| 20260830202003 | 21 | 300 | 3.2 | 12.9 | 0.00 | 0.00 | 0.00 | 65 | 1013.4 |
| 20260830201503 | 21 | 276 | 3.2 | 8.0 | 0.00 | 0.00 | 0.00 | 65 | 1013.4 |
| 20260830201024 | 21 | 290 | 3.2 | 8.0 | 0.00 | 0.00 | 0.00 | 66 | 1013.4 |
| 20260830200503 | 21 | 310 | 3.2 | 9.7 | 0.00 | 0.00 | 0.00 | 66 | 1013.4 |
| 20260830200003 | 20 | 300 | 3.2 | 9.7 | 0.00 | 0.00 | 0.00 | 66 | 1013.4 |
| 20260830195503 | 20 | 299 | 3.2 | 8.0 | 0.00 | 0.00 | 0.00 | 66 | 1013.4 |
| 20260830195003 | 20 | 309 | 1.6 | 8.0 | 0.00 | 0.00 | 0.00 | 67 | 1013.4 |
| 20260830194503 | 20 | 324 | 3.2 | 9.7 | 0.00 | 0.00 | 0.00 | 68 | 1013.4 |
| 20260830194003 | 20 | 316 | 3.2 | 9.7 | 0.00 | 0.00 | 0.00 | 69 | 1013.4 |
| 20260830193503 | 20 | 265 | 3.2 | 9.7 | 0.00 | 0.00 | 0.00 | 68 | 1013.4 |
| 20260830193003 | 20 | 236 | 3.2 | 9.7 | 0.00 | 0.00 | 0.00 | 68 | 1013.4 |
| 20260830192503 | 19 | 258 | 3.2 | 9.7 | 0.00 | 0.00 | 0.00 | 68 | 1013.4 |
| 20260830192024 | 19 | 265 | 3.2 | 9.7 | 0.00 | 0.00 | 0.00 | 70 | 1013.4 |
| 20260830191503 | 19 | 282 | 3.2 | 9.7 | 0.00 | 0.00 | 0.00 | 70 | 1013.4 |
| 20260830191003 | 19 | 342 | 3.2 | 11.3 | 0.00 | 0.00 | 0.00 | 72 | 1013.4 |
| 20260830190524 | 18 | 350 | 3.2 | 11.3 | 0.00 | 0.00 | 0.00 | 71 | 1013.4 |
| 20260830190024 | 18 | 335 | 3.2 | 11.3 | 0.00 | 0.00 | 0.00 | 72 | 1013.4 |
| 20260830185503 | 18 | 279 | 3.2 | 8.0 | 0.00 | 0.00 | 0.00 | 73 | 1013.4 |
| 20260830185003 | 18 | 253 | 3.2 | 8.0 | 0.00 | 0.00 | 0.00 | 73 | 1013.4 |
| 20260830184503 | 18 | 284 | 3.2 | 9.7 | 0.00 | 0.00 | 0.00 | 74 | 1013.4 |
| 20260830184024 | 17 | 278 | 3.2 | 9.7 | 0.00 | 0.00 | 0.00 | 75 | 1013.4 |
| 20260830183503 | 17 | 252 | 3.2 | 11.3 | 0.00 | 0.00 | 0.00 | 75 | 1013.4 |
| 20260830183003 | 17 | 254 | 4.8 | 11.3 | 0.00 | 0.00 | 0.00 | 74 | 1013.4 |
| 20260830182503 | 17 | 243 | 4.8 | 12.9 | 0.00 | 0.00 | 0.00 | 74 | 1013.4 |
| 20260830182003 | 17 | 214 | 4.8 | 12.9 | 0.00 | 0.00 | 0.00 | 75 | 1013.4 |
| 20260830181503 | 17 | 211 | 3.2 | 9.7 | 0.00 | 0.00 | 0.00 | 76 | 1013.4 |
| 20260830181024 | 17 | 231 | 4.8 | 12.9 | 0.00 | 0.00 | 0.00 | 77 | 1013.4 |
| 20260830180503 | 17 | 243 | 4.8 | 14.5 | 0.00 | 0.00 | 0.00 | 77 | 1013.4 |
| 20260830180003 | 17 | 255 | 3.2 | 14.5 | 0.00 | 0.00 | 0.00 | 77 | 1013.4 |
| 20260830175503 | 17 | 261 | 3.2 | 11.3 | 0.00 | 0.00 | 0.00 | 78 | 1013.4 |
| 20260830175003 | 16 | 286 | 3.2 | 11.3 | 0.00 | 0.00 | 0.00 | 79 | 1013.4 |
| 20260830174503 | 16 | 260 | 3.2 | 11.3 | 0.00 | 0.00 | 0.00 | 80 | 1013.4 |
| 20260830174003 | 16 | 235 | 3.2 | 11.3 | 0.00 | 0.00 | 0.00 | 80 | 1013.4 |
| 20260830173503 | 16 | 251 | 1.6 | 6.4 | 0.00 | 0.00 | 0.00 | 82 | 1013.4 |
| 20260830173003 | 16 | 235 | 3.2 | 9.7 | 0.00 | 0.00 | 0.00 | 82 | 1013.4 |
| 20260830172503 | 15 | 243 | 3.2 | 12.9 | 0.00 | 0.00 | 0.00 | 83 | 1013.4 |
| 20260830172003 | 15 | 232 | 3.2 | 12.9 | 0.00 | 0.00 | 0.00 | 84 | 1013.4 |
| 20260830171503 | 15 | 237 | 4.8 | 14.5 | 0.00 | 0.00 | 0.00 | 85 | 1013.4 |
| 20260830171024 | 15 | 235 | 4.8 | 14.5 | 0.00 | 0.00 | 0.00 | 85 | 1013.4 |
| 20260830170503 | 15 | 222 | 3.2 | 8.0 | 0.00 | 0.00 | 0.00 | 87 | 1013.4 |
| 20260830170003 | 15 | 250 | 1.6 | 11.3 | 0.00 | 0.00 | 0.00 | 88 | 1013.4 |
| 20260830165503 | 14 | 251 | 3.2 | 11.3 | 0.00 | 0.00 | 0.00 | 88 | 1013.4 |
| 20260830165003 | 14 | 248 | 4.8 | 11.3 | 0.00 | 0.00 | 0.00 | 89 | 1013.4 |
| 20260830164524 | 14 | 242 | 4.8 | 11.3 | 0.00 | 0.00 | 0.00 | 90 | 1013.4 |
| 20260830164003 | 14 | 226 | 3.2 | 11.3 | 0.00 | 0.00 | 0.00 | 91 | 1013.4 |
| 20260830163503 | 13 | 231 | 3.2 | 8.0 | 0.00 | 0.00 | 0.00 | 91 | 1013.4 |
| 20260830163003 | 13 | 245 | 3.2 | 11.3 | 0.00 | 0.00 | 0.00 | 92 | 1013.4 |
| 20260830162524 | 13 | 250 | 3.2 | 12.9 | 0.00 | 0.00 | 0.00 | 92 | 1013.4 |
| 20260830162024 | 13 | 239 | 3.2 | 12.9 | 0.00 | 0.00 | 0.00 | 92 | 1013.4 |
| 20260830161503 | 13 | 209 | 3.2 | 8.0 | 0.00 | 0.00 | 0.00 | 93 | 1013.4 |
| 20260830161004 | 13 | 200 | 1.6 | 6.4 | 0.00 | 0.00 | 0.00 | 93 | 1013.4 |
| 20260830160503 | 13 | 232 | 3.2 | 8.0 | 0.00 | 0.00 | 0.00 | 93 | 1013.4 |
| 20260830160003 | 13 | 248 | 3.2 | 12.9 | 0.00 | 0.00 | 0.00 | 93 | 1013.4 |
| 20260830155503 | 13 | 244 | 3.2 | 12.9 | 0.00 | 0.00 | 0.00 | 93 | 1013.4 |
| 20260830155003 | 13 | 240 | 1.6 | 9.7 | 0.00 | 0.00 | 0.00 | 94 | 1013.4 |
| 20260830154503 | 12 | 235 | 3.2 | 9.7 | 0.00 | 0.00 | 0.00 | 94 | 1013.4 |
| 20260830154024 | 12 | 229 | 3.2 | 8.0 | 0.00 | 0.00 | 0.00 | 93 | 1013.4 |
| 20260830153503 | 12 | 234 | 1.6 | 9.7 | 0.00 | 0.00 | 0.00 | 94 | 1013.4 |
| 20260830153003 | 12 | 245 | 1.6 | 9.7 | 0.00 | 0.00 | 0.00 | 94 | 1013.4 |
| 20260830152503 | 12 | 251 | 1.6 | 6.4 | 0.00 | 0.00 | 0.00 | 94 | 1013.4 |
| 20260830152004 | 12 | 248 | 3.2 | 9.7 | 0.00 | 0.00 | 0.00 | 94 | 1013.4 |
| 20260830151503 | 12 | 241 | 3.2 | 9.7 | 0.00 | 0.00 | 0.00 | 94 | 1013.4 |
| 20260830151003 | 12 | 233 | 3.2 | 11.3 | 0.00 | 0.00 | 0.00 | 94 | 1013.4 |
| 20260830150503 | 12 | 232 | 3.2 | 11.3 | 0.00 | 0.00 | 0.00 | 94 | 1013.4 |
| 20260830150003 | 12 | 243 | 1.6 | 11.3 | 0.00 | 0.00 | 0.00 | 94 | 1013.4 |
| 20260830145503 | 12 | 252 | 1.6 | 11.3 | 0.00 | 0.00 | 0.00 | 93 | 1013.4 |
| 20260830145024 | 12 | 253 | 1.6 | 4.8 | 0.00 | 0.00 | 0.00 | 94 | 1013.4 |
| 20260830144503 | 12 | 244 | 1.6 | 6.4 | 0.00 | 0.00 | 0.00 | 94 | 1013.4 |
| 20260830144003 | 12 | 241 | 1.6 | 6.4 | 0.00 | 0.00 | 0.00 | 93 | 1013.4 |
| 20260830143503 | 12 | 248 | 1.6 | 6.4 | 0.00 | 0.00 | 0.00 | 93 | 1013.4 |
| 20260830143003 | 12 | 241 | 1.6 | 6.4 | 0.00 | 0.00 | 0.00 | 93 | 1013.4 |
| 20260830142524 | 12 | 236 | 1.6 | 6.4 | 0.00 | 0.00 | 0.00 | 93 | 1013.4 |
| 20260830142003 | 12 | 237 | 1.6 | 6.4 | 0.00 | 0.00 | 0.00 | 93 | 1013.4 |
| 20260830141503 | 12 | 237 | 1.6 | 6.4 | 0.00 | 0.00 | 0.00 | 93 | 1013.4 |
| 20260830141003 | 12 | 240 | 1.6 | 9.7 | 0.00 | 0.00 | 0.00 | 93 | 1013.4 |
| 20260830140503 | 12 | 242 | 1.6 | 9.7 | 0.00 | 0.00 | 0.00 | 93 | 1013.4 |
| 20260830140003 | 12 | 246 | 1.6 | 4.8 | 0.00 | 0.00 | 0.00 | 93 | 1013.4 |
| 20260830135503 | 12 | 252 | 1.6 | 6.4 | 0.00 | 0.00 | 0.00 | 93 | 1013.4 |
| 20260830135024 | 12 | 243 | 1.6 | 8.0 | 0.00 | 0.00 | 0.00 | 93 | 1013.4 |
| 20260830134503 | 12 | 231 | 3.2 | 8.0 | 0.00 | 0.00 | 0.00 | 93 | 1013.4 |
| 20260830134003 | 12 | 231 | 1.6 | 8.0 | 0.00 | 0.00 | 0.00 | 93 | 1013.4 |
| 20260830133503 | 11 | 233 | 1.6 | 6.4 | 0.00 | 0.00 | 0.00 | 93 | 1013.4 |
| 20260830133003 | 11 | 237 | 0.0 | 4.8 | 0.00 | 0.00 | 0.00 | 93 | 1013.4 |